Weather WX

World > North America > United States > Mississippi

Patrick, Mississippi Regional Weather

Lat: 33.49N, Lon: 88.77W
Wx Zone: MSZ033
Feedback

Patrick, MS Regional Weather

Expires:201906260400;;085049
ASUS44 KJAN 260310
RWRMS 

MISSISSIPPI HOURLY WEATHER ROUNDUP
NATIONAL WEATHER SERVICE JACKSON MS
1000 PM CDT TUE JUN 25 2019

NOTE: "FAIR: INDICATES FEW OR NO CLOUDS BELOW 12,000 FEET WITH NO
SIGNIFICANT WEATHER AND/OR OBSTRUCTIONS TO VISIBILITY.


MSZ003>006-009-014>017-022>024-029>033-037>039-260400-
NORTHEAST MISSISSIPPI
  
CITY           SKY/WX    TMP DP  RH WIND       PRES   REMARKS
ABERDEEN       FAIR      79  79 100 S5        30.12R                  
COLUMBUS AFB   MOCLDY    79  74  84 SW7       30.11R                  
CORINTH        FAIR      77  72  83 CALM      30.09R                  
GOLDN TRIANGLE FAIR      80  71  74 W3        30.12R                  
STARKVILLE     FAIR      75  66  73 S5        30.14R                  
TUPELO         FAIR      81  73  76 SW5       30.10R                  
$$


SKY/WX - Weather  TMP - Temperature  DP - Dew Point  RH - Relative Humidity
WIND - Wind Direction/Speed PRES - Barometric Pressure VSB - Visibility
WCI - Wind Chill Index E13G22 Wind - East Wind 13 mph/Gusts of 22 mph